CDT,Max TemperatureF,Mean TemperatureF,Min TemperatureF,Max Dew PointF,MeanDew PointF,Min DewpointF,Max Humidity, Mean Humidity, Min Humidity, Max Sea Level PressureIn, Mean Sea Level PressureIn, Min Sea Level PressureIn, Max VisibilityMiles, Mean VisibilityMiles, Min VisibilityMiles, Max Wind SpeedMPH, Mean Wind SpeedMPH, Max Gust SpeedMPH,PrecipitationIn, CloudCover, Events, WindDirDegrees
2013-10-1,78,68,57,64,60,54,96,78,54,30.00,29.96,29.92,10,8,2,21,10,25,0.00,4,,216
2013-10-2,75,67,59,64,55,47,93,66,38,30.11,30.04,29.99,10,8,2,10,5,,0.00,3,,37
2013-10-3,77,68,58,68,64,54,96,88,69,30.00,29.95,29.87,10,7,0,14,5,29,0.00,6,Fog-Rain-Thunderstorm,182
2013-10-4,80,72,64,68,64,61,94,83,64,30.00,29.97,29.93,10,8,2,12,6,16,0.00,3,,218
2013-10-5,80,72,64,69,66,63,94,86,63,29.96,29.89,29.79,10,8,1,14,7,16,0.00,5,Rain-Thunderstorm,183
2013-10-6,67,55,43,66,46,38,93,73,46,29.81,29.77,29.70,10,10,7,20,9,25,0.00,6,Rain,242
2013-10-7,66,54,43,46,43,39,90,72,39,30.11,29.93,29.78,10,10,5,17,8,22,0.00,4,Rain,264
2013-10-8,75,59,43,51,45,42,94,65,31,30.21,30.16,30.11,10,10,10,8,3,,0.00,0,,169
2013-10-9,71,58,45,52,45,38,95,68,30,30.26,30.20,30.16,10,10,0,10,3,,0.00,0,Fog,113
2013-10-10,74,58,43,51,47,42,97,71,36,30.19,30.13,30.07,10,8,0,7,1,,0.00,0,Fog,105
2013-10-11,76,62,50,52,46,43,90,58,36,30.11,30.05,29.98,10,10,10,10,3,,0.00,1,,145
2013-10-12,75,64,53,62,52,44,84,68,49,30.19,30.04,29.99,10,10,7,20,7,24,0.00,3,Rain,206
2013-10-13,64,51,39,43,39,32,95,69,31,30.41,30.33,30.20,10,10,1,13,2,20,0.00,0,,10
2013-10-14,63,51,39,47,42,38,94,72,42,30.41,30.31,30.16,10,10,7,12,3,17,0.00,1,,84
2013-10-15,63,56,50,61,51,43,94,81,68,30.15,29.94,29.81,10,8,2,16,9,23,0.00,5,Rain,176
2013-10-16,53,48,42,44,43,40,90,76,70,29.96,29.91,29.88,10,10,10,16,9,23,0.00,7,,251
2013-10-17,55,46,38,46,43,37,95,84,56,29.94,29.89,29.84,10,9,2,16,7,23,0.00,6,Rain,250
2013-10-18,48,42,36,42,38,35,95,79,62,29.98,29.93,29.86,10,9,4,15,6,21,0.00,5,,246
2013-10-19,55,48,41,40,36,30,90,69,40,29.95,29.86,29.81,10,10,10,20,8,28,0.00,6,Rain,239
2013-10-20,64,50,35,44,39,32,91,65,37,29.90,29.83,29.74,10,10,10,20,8,30,0.00,5,Rain,209
2013-10-21,54,42,31,47,34,23,86,64,40,29.99,29.91,29.82,10,10,7,20,9,26,0.00,4,Rain,263
2013-10-22,42,33,25,35,29,22,95,81,48,30.00,29.97,29.91,10,8,3,10,3,,0.00,4,Rain,243
2013-10-23,46,39,32,35,28,23,95,70,43,30.02,29.97,29.89,10,9,4,16,7,23,0.00,4,,292
2013-10-24,44,40,34,30,25,18,79,59,37,30.29,30.15,30.02,10,10,10,16,8,29,0.00,7,,291
2013-10-25,50,38,26,28,25,22,84,60,36,30.42,30.29,30.10,10,10,10,18,7,25,0.00,1,,241
2013-10-26,55,43,32,34,29,26,82,54,41,30.09,29.97,29.87,10,10,10,23,14,28,0.00,4,,262
2013-10-27,55,40,26,32,27,24,92,65,33,30.09,30.04,29.99,10,10,7,14,3,21,0.00,0,,226
2013-10-28,57,43,29,44,36,26,89,75,56,30.35,30.23,30.08,10,10,10,12,3,18,0.00,1,,20
2013-10-29,55,46,37,43,37,34,88,71,50,30.37,30.28,30.15,10,10,10,9,6,,0.00,2,Rain,109
2013-10-30,64,52,41,62,50,40,96,90,79,30.15,30.03,29.79,10,4,0,14,4,21,0.00,7,Fog-Rain-Thunderstorm,139
2013-10-31,64,56,47,62,57,43,94,91,84,29.79,29.49,29.22,10,8,2,24,17,36,0.00,8,Rain,217